Regional Weather Roundup
Issued by NWS

Home | Current Version | Previous Version | Text Only | Print | Product List | Glossary On
Versions: 1 2 3 4 5 6 7 8 9 10 11 12 13 14 15 16 17 18 19 20 21 22 23 24 25 26 27 28 29 30 31 32 33 34 35 36 37 38 39 40 41 42 43 44 45 46 47 48 49 50
000
ASUS43 KLSX 281710
RWRMO

WEATHER SUMMARY FOR MISSOURI
NATIONAL WEATHER SERVICE SPRINGFIELD MO
1100 AM CST TUE FEB 28 2017

NOTE: "FAIR" INDICATES FEW OR NO CLOUDS BELOW 12,000 FEET WITH NO
       SIGNIFICANT WEATHER AND/OR OBSTRUCTIONS TO VISIBILITY.
       CURRENT SKY AND/OR WEATHER CONDITIONS ARE NOT AVAILABLE FOR
       CHILLICOTHE AND FARMINGTON.

MOZ001>031-035>038-043-044-053-054-281800-
...NORTHERN AND WESTERN MISSOURI...

CITY           SKY/WX    TMP DP  RH WIND       PRES   REMARKS
KANSAS CTY INT CLOUDY    67  56  67 SW16      29.64F
KANSAS C DTWN  CLOUDY    70  56  61 SW16G28   29.65F
LEE`S SUMMIT   PTSUNNY   71  57  61 SW21G29   29.67F
ST JOSEPH      CLOUDY    67  58  72 SW17G25   29.62F
CHILLICOTHE      N/A     68  58  70 SW15G23   29.66F
KIRKSVILLE     CLOUDY    68  57  68 SW14G31   29.67F

$$
MOZ066>068-077>081-088>096-101>105-281800-
...SOUTHWEST MISSOURI...

CITY           SKY/WX    TMP DP  RH WIND       PRES   REMARKS
SPRINGFIELD    CLOUDY    72  61  68 S26G33    29.80F
JOPLIN         MOSUNNY   74  61  63 SW30G41   29.76F
BRANSON        CLOUDY    72  59  64 SW13G22   29.87S

$$
MOZ032>034-039>042-045>050-055>058-069>072-281800-
...CENTRAL MISSOURI...

CITY           SKY/WX    TMP DP  RH WIND       PRES   REMARKS
COLUMBIA       CLOUDY    71  60  68 S22G29    29.73F
JEFFERSON CITY CLOUDY    70  59  68 S17G25    29.74F
ROLLA          CLOUDY    67  59  75 S14       29.80S
SEDALIA        CLOUDY    73  60  63 SW24G31   29.70F
WARRENSBURG    CLOUDY    72  55  56 S25G33    29.68S
OSAGE BEACH    CLOUDY    71  60  68 S22G28    29.76F

$$
MOZ051-052-059>065-281800-
...EAST CENTRAL MISSOURI...

CITY           SKY/WX    TMP DP  RH WIND       PRES   REMARKS
ST LOUIS INTL  CLOUDY    69  58  67 SW17G26   29.81S
SPIRIT OF STL  CLOUDY    69  59  70 SW15      29.79F
ST CHARLES     CLOUDY    66  60  81 SW14      29.80F

$$
MOZ072>076-082>087-097>100-106>115-281800-
...SOUTH CENTRAL AND SOUTHEAST MISSOURI...

CITY           SKY/WX    TMP DP  RH WIND       PRES   REMARKS
CAPE GIRARDEAU LGT RAIN  63  61  93 S14       29.92S FOG
FARMINGTON     CLOUDY    61  59  93 S10       29.88F
POPLAR BLUFF   LGT RAIN  64  64 100 S12       29.91F FOG
WEST PLAINS    CLOUDY    67  60  78 SW17G25   29.90R

$$




USA.gov is the U.S. government's official web portal to all federal, state and local government web resources and services.